Weather History for Telluride, CO

Change the Weather History Date:

Monday, June 3, 2013

  Actual Average Record
Temperature  
Mean Temperature 60 °F -  
Max Temperature 68 °F 64 °F 77 °F (2012)
Min Temperature 50 °F 40 °F 28 °F (2005)
Degree Days  
Heating Degree Days 6    
Growing Degree Days 10 (Base 50)    
Moisture  
Dew Point 25 °F    
Average Humidity 27    
Maximum Humidity 43    
Minimum Humidity 15    
Precipitation  
Precipitation 0.00 in - - ()
Sea Level Pressure  
Sea Level Pressure 30.21 in    
Wind  
Wind Speed 4 mph (SSW)    
Max Wind Speed 20 mph    
Max Gust Speed 36 mph    
Visibility 10 miles    
Events Rain , Thunderstorm    
Averages and records for this station are not official NWS values.
T = Trace of Precipitation, MM = Missing Value Source: NWS Daily Summary

Daily Weather History Graph

Daily Weather History Graph

Search for Another Location

Airport:

Trip Planner

Search our weather history database for the weather conditions in past years. The results will help you decide how hot, cold, wet, or windy it might be!

Date:

Astronomy

Jun. 03, 2013 Rise Set
Actual Time 5:50 AM MDT 8:29 PM MDT
Civil Twilight 5:19 AM MDT 9:00 PM MDT
Nautical Twilight 4:40 AM MDT 9:39 PM MDT
Astronomical Twilight 3:57 AM MDT 10:22 PM MDT
Moon 2:45 AM MDT (6/3) 4:07 PM MDT (6/3)
Length of Visible Light 15h 41m
Length of Day
14h 39m
Waning Crescent, 21% of the Moon is Illuminated
Jun 3
Waning Crescent
Jun 8
New
Jun 16
First Quarter
Jun 23
Full
Jun 29
Last Quarter

Hourly Weather History & Observations

Time (MDT) Temp. Dew Point Humidity Pressure Visibility Wind Dir Wind Speed Gust Speed Precip Events Conditions
12:15 AM 53.6 °F 23.0 °F 30% 30.20 in 10.0 mi Calm Calm - N/A   Scattered Clouds
12:35 AM 55.4 °F 23.0 °F 29% 30.20 in 10.0 mi Calm Calm - N/A   Scattered Clouds
12:55 AM 55.4 °F 23.0 °F 29% 30.19 in 10.0 mi Calm Calm - N/A   Scattered Clouds
1:15 AM 55.4 °F 23.0 °F 29% 30.19 in 10.0 mi Calm Calm - N/A   Mostly Cloudy
1:35 AM 53.6 °F 23.0 °F 30% 30.18 in 10.0 mi ESE 4.6 mph - N/A   Scattered Clouds
1:55 AM 53.6 °F 23.0 °F 30% 30.18 in 10.0 mi East 3.5 mph - N/A   Clear
2:15 AM 53.6 °F 23.0 °F 30% 30.17 in 10.0 mi SE 4.6 mph - N/A   Clear
2:35 AM 51.8 °F 24.8 °F 35% 30.17 in 10.0 mi SE 5.8 mph - N/A   Scattered Clouds
2:55 AM 53.6 °F 24.8 °F 33% 30.16 in 10.0 mi East 3.5 mph - N/A   Mostly Cloudy
3:15 AM 51.8 °F 24.8 °F 35% 30.16 in 10.0 mi SE 4.6 mph - N/A   Scattered Clouds
3:35 AM 51.8 °F 24.8 °F 35% 30.16 in 10.0 mi ESE 4.6 mph - N/A   Scattered Clouds
3:55 AM 53.6 °F 23.0 °F 30% 30.16 in 10.0 mi ESE 3.5 mph - N/A   Mostly Cloudy
4:15 AM 51.8 °F 23.0 °F 33% 30.16 in 10.0 mi Calm Calm - N/A   Scattered Clouds
4:35 AM 53.6 °F 23.0 °F 30% 30.16 in 10.0 mi Calm Calm - N/A   Mostly Cloudy
4:55 AM 53.6 °F 23.0 °F 30% 30.16 in 10.0 mi Calm Calm - N/A   Mostly Cloudy
5:15 AM 53.6 °F 23.0 °F 30% 30.16 in 10.0 mi Calm Calm - N/A   Mostly Cloudy
5:35 AM 53.6 °F 23.0 °F 30% 30.17 in 10.0 mi NNE 3.5 mph - N/A   Mostly Cloudy
5:55 AM 53.6 °F 23.0 °F 30% 30.18 in 10.0 mi Calm Calm - N/A   Mostly Cloudy
6:15 AM 53.6 °F 24.8 °F 33% 30.18 in 10.0 mi Calm Calm - N/A   Mostly Cloudy
6:35 AM 55.4 °F 23.0 °F 29% 30.19 in 10.0 mi Calm Calm - N/A   Mostly Cloudy
6:55 AM 53.6 °F 26.6 °F 35% 30.19 in 10.0 mi ESE 5.8 mph - N/A   Scattered Clouds
7:15 AM 53.6 °F 26.6 °F 35% 30.20 in 10.0 mi SE 5.8 mph - N/A   Scattered Clouds
7:35 AM 55.4 °F 28.4 °F 36% 30.20 in 10.0 mi ESE 5.8 mph - N/A   Clear
7:55 AM 57.2 °F 26.6 °F 31% 30.20 in 10.0 mi East 3.5 mph - N/A   Clear
8:15 AM 59.0 °F 28.4 °F 31% 30.20 in 10.0 mi Calm Calm - N/A   Clear
8:35 AM 60.8 °F 28.4 °F 29% 30.20 in 10.0 mi Calm Calm - N/A   Clear
8:55 AM 62.6 °F 26.6 °F 26% 30.20 in 10.0 mi Calm Calm - N/A   Clear
9:15 AM 62.6 °F 23.0 °F 22% 30.20 in 10.0 mi Calm Calm - N/A   Clear
9:35 AM 64.4 °F 19.4 °F 18% 30.20 in 10.0 mi WSW 4.6 mph - N/A   Clear
9:55 AM 66.2 °F 17.6 °F 15% 30.20 in 10.0 mi WSW 12.7 mph 20.7 mph N/A   Clear
10:15 AM 66.2 °F 17.6 °F 15% 30.20 in 10.0 mi SSW 13.8 mph 23.0 mph N/A   Clear
10:35 AM 66.2 °F 17.6 °F 15% 30.20 in 10.0 mi SW 11.5 mph 27.6 mph N/A   Clear
10:55 AM 66.2 °F 17.6 °F 15% 30.21 in 10.0 mi WSW 9.2 mph 20.7 mph N/A   Clear
11:15 AM 66.2 °F 19.4 °F 17% 30.21 in 10.0 mi South 5.8 mph 24.2 mph N/A   Scattered Clouds
11:35 AM 64.4 °F 19.4 °F 18% 30.22 in 10.0 mi WSW 15.0 mph 26.5 mph N/A   Scattered Clouds
11:55 AM 64.4 °F 21.2 °F 19% 30.22 in 10.0 mi WSW 16.1 mph 23.0 mph N/A   Scattered Clouds
12:15 PM 64.4 °F 21.2 °F 19% 30.21 in 10.0 mi SSW 18.4 mph 28.8 mph N/A   Scattered Clouds
12:35 PM 68.0 °F 19.4 °F 16% 30.21 in 10.0 mi SSW 13.8 mph 25.3 mph N/A   Mostly Cloudy
12:55 PM 66.2 °F 23.0 °F 19% 30.21 in 10.0 mi West 16.1 mph 27.6 mph N/A   Mostly Cloudy
1:15 PM 64.4 °F 23.0 °F 21% 30.21 in 10.0 mi West 11.5 mph 26.5 mph N/A   Mostly Cloudy
1:35 PM 62.6 °F 26.6 °F 26% 30.22 in 10.0 mi West 5.8 mph 25.3 mph N/A Rain Light Rain
1:55 PM 60.8 °F 28.4 °F 29% 30.21 in 10.0 mi SSW 13.8 mph 21.9 mph N/A Rain Light Rain
2:15 PM 60.8 °F 26.6 °F 27% 30.22 in 10.0 mi South 8.1 mph 20.7 mph N/A   Scattered Clouds
2:35 PM 64.4 °F 26.6 °F 24% 30.20 in 10.0 mi South 3.5 mph - N/A   Scattered Clouds
2:55 PM 66.2 °F 23.0 °F 19% 30.19 in 10.0 mi SW 19.6 mph 35.7 mph N/A Thunderstorm Mostly Cloudy
3:15 PM 62.6 °F 28.4 °F 27% 30.23 in 10.0 mi West 16.1 mph 27.6 mph N/A Thunderstorm Thunderstorm
3:35 PM 62.6 °F 28.4 °F 27% 30.25 in 10.0 mi WSW 9.2 mph - N/A   Overcast
3:55 PM 60.8 °F 30.2 °F 31% 30.24 in 10.0 mi NW 4.6 mph - N/A   Overcast
4:15 PM 60.8 °F 30.2 °F 31% 30.25 in 10.0 mi NW 9.2 mph 19.6 mph N/A   Overcast
4:35 PM 59.0 °F 30.2 °F 34% 30.24 in 10.0 mi WNW 4.6 mph - N/A   Overcast
4:55 PM 60.8 °F 30.2 °F 31% 30.23 in 10.0 mi Calm Calm - N/A   Mostly Cloudy
5:15 PM 62.6 °F 30.2 °F 30% 30.21 in 10.0 mi Calm Calm - N/A   Scattered Clouds
5:35 PM 62.6 °F 28.4 °F 27% 30.20 in 10.0 mi Calm Calm - N/A   Clear
5:55 PM 64.4 °F 26.6 °F 24% 30.20 in 10.0 mi SE 5.8 mph - N/A   Clear
6:15 PM 64.4 °F 26.6 °F 24% 30.20 in 10.0 mi Calm Calm - N/A   Scattered Clouds
6:35 PM 66.2 °F 23.0 °F 19% 30.20 in 10.0 mi WSW 11.5 mph 19.6 mph N/A   Scattered Clouds
6:55 PM 66.2 °F 23.0 °F 19% 30.20 in 10.0 mi WSW 16.1 mph 24.2 mph N/A   Scattered Clouds
7:15 PM 64.4 °F 23.0 °F 21% 30.20 in 10.0 mi West 10.4 mph - N/A   Clear
7:35 PM 66.2 °F 23.0 °F 19% 30.21 in 10.0 mi West 6.9 mph - N/A   Scattered Clouds
7:55 PM 64.4 °F 23.0 °F 21% 30.21 in 10.0 mi West 8.1 mph - N/A   Scattered Clouds
8:15 PM 64.4 °F 23.0 °F 21% 30.22 in 10.0 mi SW 3.5 mph - N/A   Clear
8:35 PM 62.6 °F 24.8 °F 24% 30.22 in 10.0 mi Calm Calm - N/A   Clear
8:55 PM 60.8 °F 24.8 °F 25% 30.22 in 10.0 mi Calm Calm - N/A   Clear
9:15 PM 59.0 °F 26.6 °F 29% 30.23 in 10.0 mi Calm Calm - N/A   Clear
9:35 PM 57.2 °F 26.6 °F 31% 30.23 in 10.0 mi East 3.5 mph - N/A   Clear
9:55 PM 55.4 °F 26.6 °F 33% 30.24 in 10.0 mi Calm Calm - N/A   Clear
10:15 PM 55.4 °F 28.4 °F 36% 30.25 in 10.0 mi ESE 5.8 mph - N/A   Clear
10:35 PM 53.6 °F 28.4 °F 38% 30.25 in 10.0 mi Calm Calm - N/A   Clear
10:55 PM 53.6 °F 28.4 °F 38% 30.25 in 10.0 mi ESE 5.8 mph - N/A   Clear
11:15 PM 53.6 °F 28.4 °F 38% 30.25 in 10.0 mi SE 8.1 mph - N/A   Clear
11:35 PM 51.8 °F 28.4 °F 41% 30.26 in 10.0 mi ESE 6.9 mph - N/A   Clear
11:55 PM 50.0 °F 28.4 °F 43% 30.26 in 10.0 mi Calm Calm - N/A   Clear